Franklin, NC

10:54 PM EDT on October 18, 2017 (GMT -0400)
Franklin

Weather History for K1A5 - January, 2011

Change the Weather History Date:

Tuesday, January 25, 2011

  Actual Average (KTOC) Record (KTOC)
Temperature  
Mean Temperature 29 °F -  
Max Temperature 36 °F 52 °F 75 °F (2017)
Min Temperature 22 °F 35 °F 15 °F (2014)
Degree Days  
Heating Degree Days 36    
Moisture  
Dew Point 26 °F    
Average Humidity 83    
Maximum Humidity 91    
Minimum Humidity 67    
Precipitation  
Precipitation 0.16 in - - ()
Sea Level Pressure  
Sea Level Pressure 30.10 in    
Wind  
Wind Speed 0 mph (South)    
Max Wind Speed 4 mph    
Max Gust Speed -    
Visibility 8 miles    
Events Rain , Snow    
Averages and records for this station are not official NWS values.
T = Trace of Precipitation, MM = Missing Value Source: NWS Daily Summary

Daily Weather History Graph

Daily Weather History Graph

Search for Another Location

Airport or City:

Trip Planner

Search our weather history database for the weather conditions in past years. The results will help you decide how hot, cold, wet, or windy it might be!

Date:

Astronomy

Jan. 25, 2011 Rise Set
Actual Time 7:37 AM EST 5:54 PM EST
Civil Twilight 7:10 AM EST 6:21 PM EST
Nautical Twilight 6:39 AM EST 6:52 PM EST
Astronomical Twilight 6:09 AM EST 7:22 PM EST
Moon No Moon Rise 10:56 AM EST (1/25)
Length of Visible Light 11h 11m
Length of Day
10h 16m
Waning Gibbous, 60% of the Moon is Illuminated
Jan 25
Waning Gibbous
Jan 26
Last Quarter
Feb 2
New
Feb 11
First Quarter
Feb 18
Full

Hourly Weather History & Observations

Time (EST) Temp. Windchill Dew Point Humidity Pressure Visibility Wind Dir Wind Speed Gust Speed Precip Events Conditions
12:00 AM 24.1 °F - 20.3 °F 85% 30.22 in 10.0 mi Calm Calm - N/A   Clear
12:20 AM 22.6 °F - 19.2 °F 87% 30.22 in 10.0 mi Calm Calm - N/A   Clear
12:40 AM 22.8 °F - 19.0 °F 85% 30.22 in 10.0 mi Calm Calm - N/A   Clear
1:00 AM 23.0 °F - 19.4 °F 86% 30.20 in 10.0 mi Calm Calm - N/A   Clear
1:20 AM 23.4 °F - 19.8 °F 86% 30.20 in 10.0 mi Calm Calm - N/A   Clear
1:40 AM 23.4 °F - 19.9 °F 87% 30.22 in 10.0 mi Calm Calm - N/A   Clear
2:00 AM 22.1 °F - 18.5 °F 86% 30.21 in 10.0 mi Calm Calm - N/A   Clear
2:20 AM 22.6 °F - 19.6 °F 88% 30.21 in 10.0 mi Calm Calm - N/A   Clear
2:40 AM 23.9 °F - 20.8 °F 88% 30.21 in 10.0 mi Calm Calm - N/A   Mostly Cloudy
3:00 AM 25.7 °F - 22.3 °F 87% 30.21 in 10.0 mi Calm Calm - N/A   Overcast
3:20 AM 26.2 °F - 22.1 °F 84% 30.20 in 10.0 mi Calm Calm - N/A   Mostly Cloudy
3:40 AM 26.2 °F - 22.5 °F 86% 30.19 in 10.0 mi Calm Calm - N/A   Scattered Clouds
4:00 AM 26.4 °F - 22.5 °F 85% 30.19 in 10.0 mi Calm Calm - N/A   Mostly Cloudy
4:20 AM 26.8 °F - 22.6 °F 84% 30.19 in 10.0 mi Calm Calm - N/A   Overcast
4:40 AM 27.0 °F - 23.0 °F 85% 30.18 in 10.0 mi Calm Calm - N/A   Overcast
5:00 AM 27.9 °F - 23.5 °F 84% 30.18 in 10.0 mi Calm Calm - N/A   Overcast
5:20 AM 28.0 °F - 23.7 °F 84% 30.18 in 10.0 mi Calm Calm - N/A   Overcast
5:40 AM 28.4 °F - 23.9 °F 83% 30.18 in 10.0 mi Calm Calm - N/A   Overcast
6:00 AM 28.4 °F - 24.3 °F 84% 30.18 in 10.0 mi Calm Calm - N/A   Overcast
6:20 AM 28.9 °F - 24.1 °F 82% 30.18 in 10.0 mi Calm Calm - N/A   Overcast
6:40 AM 29.3 °F - 23.9 °F 80% 30.18 in 10.0 mi Calm Calm - N/A   Overcast
7:00 AM 29.5 °F - 24.3 °F 81% 30.18 in 10.0 mi Calm Calm - N/A   Overcast
7:20 AM 29.7 °F - 24.6 °F 81% 30.17 in 10.0 mi Calm Calm - N/A   Overcast
7:40 AM 29.7 °F - 24.3 °F 80% 30.16 in 10.0 mi Calm Calm - N/A   Overcast
8:00 AM 28.8 °F - 24.3 °F 83% 30.15 in 10.0 mi Calm Calm - N/A   Scattered Clouds
8:20 AM 30.0 °F - 24.8 °F 81% 30.16 in 10.0 mi Calm Calm - N/A   Mostly Cloudy
8:40 AM 31.1 °F 27.7 °F 25.0 °F 78% 30.15 in 10.0 mi North 3.5 mph - N/A   Overcast
9:00 AM 31.6 °F - 25.5 °F 78% 30.16 in 10.0 mi Calm Calm - N/A   Overcast
9:20 AM 32.0 °F - 25.5 °F 77% 30.15 in 10.0 mi Calm Calm - N/A   Overcast
9:40 AM 32.2 °F - 25.7 °F 77% 30.14 in 10.0 mi Calm Calm - N/A   Overcast
10:00 AM 32.9 °F - 25.5 °F 74% 30.13 in 10.0 mi Calm Calm - N/A   Overcast
10:20 AM 33.8 °F - 24.6 °F 69% 30.12 in 10.0 mi Calm Calm - N/A Snow Light Snow
10:40 AM 33.8 °F - 24.4 °F 69% 30.12 in 10.0 mi Calm Calm - N/A Snow Snow
11:00 AM 34.0 °F - 24.1 °F 67% 30.11 in 10.0 mi Calm Calm - N/A   Overcast
11:20 AM 34.7 °F - 26.1 °F 71% 30.11 in 10.0 mi Calm Calm - N/A   Overcast
11:40 AM 34.7 °F - 26.1 °F 71% 30.10 in 10.0 mi Calm Calm - N/A Rain Light Rain
12:00 PM 34.7 °F - 27.1 °F 74% 30.09 in 5.0 mi Calm Calm - N/A Rain Light Rain
12:20 PM 34.7 °F - 28.6 °F 78% 30.08 in 5.0 mi Calm Calm - 0.01 in Rain Light Rain
12:40 PM 34.5 °F - 27.3 °F 75% 30.06 in 7.0 mi Calm Calm - 0.02 in Rain Rain
1:00 PM 34.7 °F - 29.3 °F 81% 30.06 in 7.0 mi Calm Calm - 0.03 in Rain Light Rain
1:20 PM 34.9 °F - 29.8 °F 82% 30.04 in 4.0 mi Calm Calm - 0.01 in Rain Rain
1:40 PM 34.9 °F - 30.0 °F 82% 30.01 in 7.0 mi Calm Calm - 0.03 in Rain Light Rain
2:20 PM 36.0 °F - 29.8 °F 78% 29.98 in 7.0 mi Calm Calm - N/A   Drizzle
2:40 PM 36.0 °F - 29.7 °F 78% 29.97 in 5.0 mi Calm Calm - 0.01 in Rain Rain
3:00 PM 36.5 °F - 32.0 °F 84% 29.96 in 5.0 mi Calm Calm - 0.02 in Rain Light Rain
3:20 PM 36.5 °F - 32.2 °F 84% 29.95 in 5.0 mi Calm Calm - 0.01 in Rain Rain
3:40 PM 36.3 °F - 32.4 °F 86% 29.94 in 3.0 mi Calm Calm - 0.02 in Rain Rain
4:00 PM 36.5 °F - 32.9 °F 87% 29.94 in 4.0 mi Calm Calm - 0.05 in Rain Rain
4:20 PM 36.5 °F - 33.3 °F 88% 29.93 in 4.0 mi Calm Calm - N/A Rain Rain
4:40 PM 36.5 °F - 33.4 °F 89% 29.93 in 4.0 mi Calm Calm - 0.01 in   Drizzle
5:00 PM 36.5 °F - 33.8 °F 90% 29.93 in 2.5 mi Calm Calm - 0.02 in   Drizzle
5:20 PM 36.5 °F - 33.8 °F 90% 29.93 in 2.5 mi Calm Calm - N/A Rain Rain
5:40 PM 36.5 °F - 33.8 °F 90% 29.93 in 3.0 mi Calm Calm - 0.01 in   Light Drizzle
6:00 PM 36.5 °F - 33.8 °F 90% 29.92 in 3.0 mi Calm Calm - 0.01 in   Overcast
6:20 PM 36.5 °F - 33.8 °F 90% 29.91 in 4.0 mi Calm Calm - N/A   Light Drizzle
6:40 PM 36.5 °F - 34.0 °F 91% 29.91 in 2.5 mi Calm Calm - N/A Rain Light Rain
7:00 PM 36.1 °F - 33.8 °F 91% 29.90 in 2.0 mi Calm Calm - N/A   Overcast
7:20 PM 36.1 °F - 33.8 °F 91% 29.90 in 2.0 mi Calm Calm - N/A   Overcast
7:40 PM 36.0 °F - 33.8 °F 92% 29.89 in 1.8 mi Calm Calm - N/A   Overcast
8:00 PM 36.0 °F - 33.8 °F 92% 29.89 in 1.8 mi Calm Calm - N/A   Light Drizzle
8:20 PM 36.0 °F - 33.8 °F 92% 29.89 in 1.5 mi Calm Calm - N/A Rain Rain
8:40 PM 36.0 °F - 33.8 °F 92% 29.89 in 1.5 mi Calm Calm - N/A   Overcast
9:00 PM 36.0 °F - 33.8 °F 92% 29.87 in 1.5 mi Calm Calm - N/A Rain Rain
9:20 PM 36.0 °F - 33.8 °F 92% 29.87 in 1.5 mi Calm Calm - N/A   Light Drizzle
9:40 PM 36.5 °F - 34.2 °F 91% 29.87 in 1.8 mi Calm Calm - N/A   Overcast
10:00 PM 36.5 °F - 34.2 °F 91% 29.85 in 1.8 mi Calm Calm - 0.01 in Rain Light Rain
10:20 PM 36.5 °F - 34.3 °F 92% 29.84 in 2.0 mi Calm Calm - N/A Rain Light Rain
10:40 PM 36.5 °F - 34.2 °F 91% 29.83 in 1.8 mi Calm Calm - N/A   Overcast
11:00 PM 36.5 °F - 34.3 °F 92% 29.83 in 2.0 mi Calm Calm - N/A   Overcast
11:20 PM 36.5 °F - 34.7 °F 93% 29.82 in 2.5 mi Calm Calm - N/A   Overcast
11:40 PM 36.7 °F - 34.7 °F 93% 29.82 in 2.0 mi Calm Calm - N/A   Overcast